Home > Weather > Barquisimeto > Past weeks

Flag for Venezuela Weather for the Past 2 Weeks in Barquisimeto, Venezuela

Now
73 °F

Overcast.


Feels Like: 73 °F
Forecast: N/A
Wind: 7 mph from East

Location: Barquisimeto Airport

Current Time: May 2, 2016 at 7:24:45 PM

Latest Report: May 2, 2016 at 6:00 PM


Visibility: N/A

Pressure: 30.01 "Hg (28.10 "Hg at 569m altitude)

Humidity: 83%

Dew Point: 68 °F

Location of BarquisimetoLocation

Historic Weather in Barquisimeto — Graph

°F

Barquisimeto Temperature Yesterday

Maximum temperature yesterday: 73 °F (at 1:00 PM)
Minimum temperature yesterday: 70 °F (at 6:00 AM)
Average temperature yesterday: 71 °F

High & Low Weather Summary for the Past Weeks

 TemperatureHumidityPressure
High95 °F (Apr 27, 3:30 PM)100% (May 1, 6:00 AM)30.07 "Hg (May 1, 6:00 AM)
Low70 °F (Apr 20, 7:30 PM)15% (Apr 21, 5:30 PM)29.80 "Hg (Apr 26, 3:30 PM)
Average79 °F66%29.96 "Hg
* Reported Apr 17 4:30 PM — May 2 5:00 PM, Barquisimeto, Weather by CustomWeather, © 2016

Note: Actual official high and low records may vary slightly from our data, if they occured in-between our weather recording intervals... More about our weather records

Advertising

Barquisimeto Weather History for the Previous 24 Hours

Scroll right to see more
 ConditionsComfort  
Time TempWeatherWind HumidityBarometerVisibility
5:00 PM
Mon, May 2
75 °FBroken clouds.8 mph78%29.98 "HgN/A
4:00 PM75 °FBroken clouds.9 mph78%29.98 "HgN/A
3:00 PM75 °FDrizzle. Broken clouds.12 mph78%30.01 "HgN/A
2:00 PM75 °FBroken clouds.12 mph78%30.04 "HgN/A
1:00 PM75 °FBroken clouds.9 mph78%30.04 "HgN/A
12:00 PM72 °FDrizzle. Partly sunny.12 mph88%30.04 "HgN/A
11:00 AM72 °FDrizzle. Broken clouds.13 mph88%30.04 "HgN/A
10:00 AM72 °FBroken clouds.14 mph88%30.04 "HgN/A
9:00 AM70 °FFog.14 mph94%30.04 "Hg1 mi
8:00 AM70 °FFog.12 mph94%30.01 "Hg1 mi
7:00 AM70 °FFog.14 mph100%29.98 "Hg1 mi
6:00 AM70 °FFog.17 mph100%29.98 "Hg1 mi
5:00 AM70 °FOvercast.14 mph100%29.98 "HgN/A
11:00 PM
Sun, May 1
70 °FOvercast.15 mph100%30.01 "HgN/A
10:00 PM70 °FFog.13 mph100%29.98 "Hg1 mi
9:00 PM70 °FFog.10 mph100%29.98 "Hg1 mi
8:00 PM70 °FFog.10 mph100%29.98 "Hg1 mi
7:00 PM72 °FFog.10 mph94%29.95 "Hg1 mi
Weather by CustomWeather, © 2016

See weather overviewHow to use our weather pages